アトラス彗星

C/2020 M5 ( ATLAS )

English version
Home page
Updated on July 24, 2022

---------------------------------------------------------------------

・ プロフィール

発見日 2020年6月30日
発見光度 19.4等
発見者 Asteroid Terrestrial-Impact Last Alert System (ATLAS) search program

・ 写真集

・ 軌道要素

Epoch 2022 Jan. 21.0 TT = JDT 2459600.5
T 2021 Aug. 19.87521 TT                                 Rudenko
q   3.0043002            (2000.0)            P               Q
z  -0.0000802      Peri.  126.33630     -0.59312301     -0.79331254
 +/-0.0000011      Node   352.09387     -0.28631630     +0.36726240
e   1.0002411      Incl.   93.22391     +0.75248128     -0.48556519
From 988 observations 2019 Aug. 10-2022 Feb. 2, mean residual 0".5.

・ 星図

・ 光度変化

        m1 = 5.0 + 5 logΔ + 15.0 log r(t - 70)

---------------------------------------------------------------------

軌道要素はM.P.E.C. 2022-C56に掲載されたものです。
星図はステラナビゲータ Ver.10 (アストロアーツ) で作成したものです。
光度グラフはComet for Windowsで作成したものです。

---------------------------------------------------------------------

Copyright(C) Seiichi Yoshida (comet@aerith.net). All rights reserved.